loading
|
Showing default

OPS 3367 A, 734

Orbit data source: Space-Track

OPS 3367 A, 734 is an American payload satellite in SSO that was launched on Sun, 19 Jan 1964 UTC via a THOR SLV-2 AGENA D launch vehicle from the Air Force Western Test Range (AFWTR). Payloads include a variety of satellites, spacecraft, and rockets equipped with specific instruments for various scientific and technological missions. These include communications satellites like Starlink; space stations such as the ISS; scientific satellites like the Hubble; Earth observation satellites from companies like Planet Labs, Umbra, and HawkEye 360; GPS; miniature CubeSats for education and research; and military/defense satellites.

Loading next visibility...
Loading greatness...
OPS 3367 A details
Identifier
734, 1964-002B
Orbit
SSO
Last TLE update14 hours ago
Origin
Flag of USNRO/SAFSP (US)
ManufacturerRCA/East Windsor
Mission statusUnknown
MissionDefense Weather
Bus & MotorP35, Unknown motor
Mass50 kg wet, 50 kg dry
Launch date (UTC)
1964-01-19 (61 years ago)
Launch vehicle
THOR SLV-2 AGENA D
Launch site
Air Force Western Test Range (AFWTR)
Object type
Payload
Rocket body
Debris
Radar Cross SectionMedium (>0.1 m² and <1 m²)

Expand to show TLE details & history

TLE from 14 hours ago
0 OPS 3367 A
1   734U 64002B   24251.19285702  .00000622  00000-0  26274-3 0  9998
2   734  98.9801 150.9919 0013432 268.0816  91.8826 14.29322309156279
Epoch: 2024-09-07T04:37Z
Definitive object data (Epoch: 2024-09-07T04:37:42.846Z)
Latitude-0.00007°
Longitude94.80882°
Altitude797.245 km
Speed7.455 km/s
True Right ascension10h 03m 58s
True Declination0° 00' 00"
Sunlit
Object was in daylight at TLE epoch
Predictive object data (real-time)
Latitude66.74559°
Longitude-63.13555°
Altitude814.206 km
Speed7.448 km/s
Apparent Right ascension23h 01m 51s
Apparent Declination18° 04' 17"
Sunlit
Object is in daylight
Predictive observer data (real-time)
Local Sidereal Time10:44:16
Azimuth355.076° N
Elevation-31.868°
Doppler factor1
Orbital elements
Apogee800.786 km
Perigee781.527 km
Semi-major axis7,169.293 km
Eccentricity0.0013432
Inclination98.9801°
RAAN150.9919°
Arg. of periapsis268.0816°
True anomaly92.03643°
Mean anomaly91.8826°
Eccentric anomaly91.95951°
Mean motion3.57543 °/min
BSTAR0.00026274
Period100.69 mins
No data available
Other satellites on launch #2 in the year 1964 (1964-01-19 UTC)

OPS 3367 A Visibility forecast

Observer location: 39.9160978°, -105.1181434

OPS 3367 A is not visible in the next 10 days
Span
Click to sort rows by Start time (UTC) header in descending order
Start Az.
Max El. time (UTC)
Max El. Az.
Max El.
End time (UTC)
End Az.